Wind_Speed
21 20 18 19 19 20 20 21 21 21 22 23 24 24 25 25 25 26 26 27 27 27 28 28 28 28 28 27 28 28 28 28 29 28 28 27 28 27 26 26 27 27 27
22 22 19 19 20 21 19 20 20 21 22 24 25 24 25 25 26 27 27 28 28 28 27 28 27 27 27 27 27 27 27 28 28 28 27 27 27 27 26 25 25 25 26
23 21 22 22 21 21 20 19 19 20 22 23 23 23 25 26 26 27 27 28 28 28 28 27 26 26 26 26 26 26 25 26 26 27 26 26 26 26 26 25 25 25 24
23 23 21 19 18 19 19 20 20 20 21 22 23 24 25 25 26 26 27 27 28 28 28 27 26 25 26 26 26 25 25 25 25 25 25 26 25 23 23 24 24 24 24
21 19 18 19 19 19 19 21 21 21 22 22 23 25 25 26 26 27 26 26 27 27 27 26 26 26 26 26 25 26 25 25 24 24 24 24 24 23 22 22 23 23 23
19 18 17 17 18 18 20 21 21 21 22 23 24 25 25 26 26 26 26 26 27 26 26 26 25 25 25 26 25 25 24 24 24 23 23 23 23 23 22 21 22 23 23
17 17 17 18 17 18 19 20 21 21 22 23 24 25 25 25 26 26 26 26 26 26 25 25 24 24 25 25 24 23 23 23 23 23 23 23 23 23 23 22 23 23 23
16 17 17 17 18 19 20 20 21 22 23 24 24 25 25 25 25 25 26 25 25 24 23 23 23 24 24 23 23 22 21 22 23 23 23 23 23 23 23 23 24 23 24
16 16 16 17 18 18 19 20 21 21 22 23 24 25 24 24 24 24 25 24 24 23 23 23 23 22 22 22 22 21 20 21 21 22 22 22 22 22 23 24 25 24 24
16 17 17 18 18 18 18 20 20 21 22 24 24 24 23 23 23 24 24 23 23 23 22 22 22 21 21 20 20 20 19 19 20 20 21 21 22 23 23 23 24 24 24
15 17 18 19 18 19 19 20 20 22 23 24 24 23 23 23 23 23 23 23 22 22 22 21 21 20 20 20 19 19 19 19 19 20 20 21 22 23 23 23 23 23 24
16 17 18 19 18 19 20 20 20 21 22 23 23 22 22 22 22 22 22 22 22 21 21 21 20 20 19 19 19 18 18 18 19 20 20 21 21 22 22 23 23 22 23
15 16 17 17 17 19 19 19 20 21 21 22 22 20 21 21 21 21 21 21 21 21 21 20 20 20 19 19 18 18 18 18 19 20 20 20 21 21 21 21 21 21 21
17 16 17 16 17 18 19 20 20 21 21 21 20 19 20 20 20 20 21 21 20 20 20 19 19 19 18 18 18 18 19 19 19 18 17 18 18 18 18 19 19 20 20
16 16 16 16 17 17 19 20 19 20 21 20 19 19 19 19 19 19 19 19 18 18 18 18 17 17 17 17 17 17 18 17 17 17 17 17 16 16 17 17 17 17 18
16 16 16 16 16 17 18 18 19 20 20 19 18 18 18 17 17 17 17 16 15 16 16 16 16 16 16 16 16 16 16 16 16 16 15 16 15 15 15 15 15 15 16
16 16 16 15 15 16 17 17 18 19 18 17 17 16 16 15 15 15 15 14 14 15 15 15 15 15 15 15 15 15 15 15 15 15 14 14 14 14 13 13 13 14 15
15 15 14 14 14 15 16 17 17 16 16 15 16 16 15 14 14 14 15 14 14 15 15 16 15 15 15 15 15 14 14 14 14 13 12 12 12 12 12 12 12 13 13
13 13 13 13 15 15 15 15 14 14 14 14 14 14 13 13 14 14 14 14 14 14 15 15 15 15 15 15 15 14 13 13 13 12 12 12 12 12 12 11 11 12 12
11 11 12 13 13 13 13 13 13 13 14 13 14 13 13 13 13 14 14 13 14 14 15 15 15 15 15 15 15 15 14 14 13 13 13 12 12 12 12 12 12 11 12
11 11 12 12 11 11 12 12 12 12 13 12 12 12 12 12 13 13 13 13 13 14 14 14 15 15 16 16 16 15 15 14 13 13 13 12 12 12 12 11 11 11 12
11 11 12 11 10 10 11 11 11 11 11 10 10 11 11 12 12 12 13 13 13 13 13 14 15 15 16 16 16 15 15 14 13 13 13 13 13 13 12 11 11 10 11
10 10 11 10 9 9 10 10 10 10 9 9 10 10 11 11 12 12 13 13 13 13 13 14 15 15 16 16 16 15 14 14 14 14 13 13 13 13 12 11 11 11 12
7 8 9 8 8 8 8 8 9 9 9 9 9 9 10 11 11 12 13 13 13 14 14 15 15 16 17 17 16 15 15 14 14 14 14 14 14 13 13 13 13 13 13
7 7 7 7 7 7 7 8 8 8 8 8 8 8 10 11 11 12 13 14 14 15 15 15 16 16 17 17 16 15 15 14 14 14 15 14 14 13 14 14 14 14 14
6 7 7 6 6 6 7 7 7 7 7 7 8 8 9 10 11 12 13 14 15 15 16 16 16 17 17 17 17 16 15 15 15 15 15 15 15 15 15 15 15 15 15
Wind_Direction
288 287 291 290 293 291 292 296 296 296 298 299 300 301 300 300 301 300 299 299 299 298 296 296 292 289 286 285 283 281 279 275 273 272 272 270 271 269 268 265 261 259 258
292 292 296 300 298 296 294 296 297 295 297 297 298 299 300 301 301 300 299 299 299 299 297 296 293 288 285 285 284 281 278 275 274 272 270 270 271 270 266 264 260 258 255
288 291 301 304 301 297 299 298 295 297 300 301 300 298 301 302 302 303 301 300 299 299 297 297 295 291 290 287 284 281 278 275 274 272 269 269 268 267 264 261 260 258 256
290 294 299 302 301 299 299 300 296 300 303 303 303 302 302 302 302 303 302 301 299 297 296 294 293 292 291 289 284 283 281 276 272 272 270 270 270 267 264 262 262 261 257
294 296 298 302 300 297 299 299 301 303 304 303 303 302 302 302 302 302 301 302 301 298 297 295 294 291 288 286 285 284 282 277 272 271 270 271 270 268 264 262 263 262 260
295 296 297 298 299 296 298 302 302 303 304 304 303 304 303 303 303 304 303 303 302 300 297 295 294 291 290 288 286 284 283 277 274 272 270 271 271 268 266 265 262 262 262
290 291 290 295 298 300 300 301 302 304 304 304 305 305 306 305 305 305 306 305 304 303 298 297 294 293 292 290 288 288 284 280 277 273 271 270 270 269 268 266 263 261 262
294 293 298 301 303 300 300 300 301 303 304 306 306 306 306 307 308 307 307 308 308 309 305 302 299 297 294 291 290 289 286 281 278 275 273 272 270 271 269 266 264 262 262
296 299 300 301 301 302 302 302 303 304 306 307 306 307 307 307 308 308 309 310 310 310 309 308 306 301 298 293 290 288 287 284 280 277 276 275 273 272 270 268 265 264 262
297 298 300 303 300 301 301 302 304 304 307 308 306 307 307 309 309 309 310 310 309 310 310 310 309 305 301 297 292 289 288 286 283 281 278 277 274 273 272 270 267 265 263
296 297 298 300 299 299 300 301 302 304 306 307 306 305 307 309 310 310 310 308 308 308 308 308 308 305 302 300 297 293 290 289 287 284 282 280 278 274 271 270 269 267 264
294 297 298 298 296 298 300 301 302 304 306 309 308 307 309 310 311 311 310 309 309 309 309 309 308 306 304 302 301 297 293 292 289 288 284 281 278 274 271 269 267 266 263
296 298 299 296 296 299 300 300 303 306 308 310 309 309 311 312 311 311 311 310 310 311 311 310 309 308 306 304 301 300 299 297 295 292 287 281 279 276 272 269 266 265 264
300 299 301 298 299 301 301 300 302 306 309 310 309 310 313 315 314 313 313 312 312 312 313 312 311 312 311 309 306 305 304 302 301 297 293 289 284 279 276 272 269 267 264
300 301 301 300 302 303 304 303 306 308 310 311 311 312 315 317 317 318 319 317 317 316 317 317 316 316 315 314 311 310 309 306 304 301 298 294 289 283 278 274 270 268 265
299 301 301 302 302 304 306 307 309 311 311 312 313 313 315 318 320 322 325 325 325 325 326 327 326 323 321 319 317 316 314 312 308 305 302 298 295 289 282 277 272 269 265
300 299 299 301 302 304 307 309 310 311 312 313 317 318 318 319 320 322 328 330 330 332 333 333 331 330 329 327 325 322 319 316 314 310 304 299 298 295 286 279 273 269 266
293 294 298 304 308 309 309 311 312 311 312 316 320 321 318 316 319 320 325 328 331 333 333 334 334 334 334 332 328 325 323 321 318 315 314 309 304 299 294 286 278 274 268
292 295 298 304 310 311 313 316 317 318 319 320 324 326 324 320 320 322 324 326 328 331 335 338 337 337 337 337 334 331 328 325 320 318 316 313 307 301 297 290 282 277 271
295 303 305 308 311 314 317 321 323 324 324 322 328 328 329 326 325 327 329 328 330 332 334 336 338 341 341 338 335 333 330 327 323 318 317 317 315 310 303 295 289 279 272
298 303 309 313 316 320 322 325 329 329 328 328 331 335 336 335 335 337 338 336 334 334 335 337 338 339 340 340 337 333 330 328 326 322 318 317 317 315 309 302 294 285 280
300 306 311 316 321 323 325 329 336 336 338 340 338 341 344 345 346 346 348 345 341 340 340 341 342 341 340 338 337 334 333 331 328 325 322 318 318 317 312 308 300 289 282
300 306 314 316 321 324 329 333 340 343 347 346 343 346 354 357 357 356 355 355 352 348 347 346 344 343 342 341 340 339 338 335 334 332 327 322 319 319 315 308 303 296 287
304 307 314 317 321 326 335 342 344 347 353 355 357 -0 1 359 359 1 1 358 356 353 351 348 345 344 344 345 345 344 341 339 337 336 333 328 322 318 315 311 307 301 292
304 309 317 320 321 325 332 343 347 350 355 358 1 1 360 1 0 359 359 358 355 352 352 351 351 349 348 347 346 346 343 341 340 338 336 334 330 326 319 311 307 304 300
301 308 314 317 320 322 325 339 348 351 356 1 6 5 2 3 2 359 358 358 358 355 354 353 351 350 350 350 349 347 343 340 339 337 334 333 330 326 321 316 310 305 300
Height
5861 5859 5857 5855 5855 5853 5852 5851 5849 5848 5846 5844 5842 5839 5837 5834 5831 5828 5825 5822 5819 5816 5813 5810 5807 5805 5802 5800 5798 5796 5794 5793 5792 5791 5790 5790 5789 5789 5789 5789 5789 5790 5790
5855 5854 5853 5853 5851 5849 5847 5846 5844 5843 5841 5839 5836 5834 5831 5829 5825 5822 5819 5815 5812 5809 5806 5803 5800 5797 5795 5793 5790 5788 5786 5785 5784 5784 5783 5783 5783 5782 5781 5781 5782 5782 5783
5851 5848 5849 5848 5847 5845 5843 5842 5840 5838 5836 5833 5830 5828 5825 5823 5819 5816 5812 5809 5805 5802 5799 5796 5793 5790 5788 5785 5783 5781 5779 5778 5777 5776 5776 5775 5775 5775 5774 5774 5774 5774 5775
5847 5845 5845 5843 5842 5840 5838 5837 5835 5833 5831 5828 5825 5822 5820 5816 5813 5810 5806 5802 5799 5796 5792 5789 5787 5784 5781 5778 5776 5774 5772 5771 5770 5769 5768 5768 5767 5767 5768 5767 5767 5767 5768
5843 5841 5840 5839 5837 5835 5834 5832 5830 5828 5825 5823 5820 5817 5813 5810 5807 5803 5799 5795 5791 5788 5785 5782 5779 5776 5773 5771 5769 5767 5765 5763 5763 5762 5761 5761 5760 5760 5761 5761 5761 5761 5761
5839 5838 5836 5834 5832 5830 5829 5827 5825 5823 5820 5817 5815 5811 5807 5803 5800 5797 5793 5789 5785 5782 5778 5775 5772 5769 5766 5764 5762 5760 5758 5756 5755 5755 5754 5754 5754 5754 5754 5754 5754 5754 5754
5835 5833 5831 5830 5828 5826 5824 5822 5820 5817 5815 5812 5809 5805 5801 5798 5794 5791 5787 5783 5779 5775 5771 5768 5765 5762 5759 5757 5755 5753 5751 5749 5749 5748 5748 5747 5747 5747 5747 5747 5747 5748 5748
5830 5829 5827 5826 5823 5822 5820 5818 5815 5813 5810 5807 5803 5800 5796 5792 5789 5785 5781 5777 5773 5769 5765 5762 5759 5756 5753 5750 5748 5746 5744 5743 5742 5741 5741 5740 5740 5740 5740 5740 5740 5741 5741
5826 5824 5823 5821 5819 5817 5816 5814 5811 5808 5805 5802 5799 5795 5791 5787 5783 5780 5776 5772 5768 5764 5760 5757 5753 5749 5747 5744 5742 5740 5738 5737 5736 5735 5734 5734 5733 5733 5733 5733 5733 5734 5734
5821 5820 5818 5816 5815 5813 5811 5809 5806 5803 5800 5797 5794 5790 5786 5782 5778 5774 5770 5766 5763 5759 5755 5751 5747 5744 5741 5738 5736 5734 5732 5731 5730 5729 5728 5727 5727 5726 5726 5726 5726 5726 5726
5817 5815 5814 5812 5810 5808 5806 5804 5801 5798 5795 5792 5788 5785 5781 5777 5773 5769 5765 5761 5758 5754 5750 5746 5743 5739 5736 5733 5731 5729 5727 5725 5724 5723 5722 5721 5720 5719 5719 5719 5718 5718 5718
5812 5810 5809 5807 5805 5803 5801 5799 5796 5794 5790 5787 5783 5779 5776 5772 5768 5764 5760 5756 5752 5749 5745 5741 5738 5735 5732 5729 5726 5724 5722 5720 5718 5717 5715 5714 5713 5712 5712 5712 5711 5711 5711
5807 5806 5804 5802 5800 5799 5797 5794 5792 5789 5786 5782 5778 5774 5770 5766 5763 5759 5755 5751 5747 5744 5740 5737 5733 5730 5727 5724 5722 5719 5717 5715 5713 5711 5709 5708 5707 5706 5705 5705 5705 5705 5704
5803 5801 5800 5798 5796 5794 5792 5789 5787 5784 5780 5777 5773 5769 5766 5762 5758 5754 5751 5747 5743 5739 5736 5733 5729 5726 5723 5720 5718 5715 5713 5710 5708 5706 5704 5702 5701 5700 5699 5699 5698 5698 5698
5797 5796 5795 5793 5791 5789 5786 5784 5781 5778 5775 5772 5768 5765 5761 5758 5754 5750 5747 5743 5739 5735 5732 5729 5726 5723 5720 5717 5714 5711 5709 5706 5704 5701 5699 5697 5696 5694 5693 5693 5692 5692 5692
5792 5791 5789 5787 5786 5784 5781 5778 5776 5773 5770 5767 5764 5761 5757 5754 5750 5747 5743 5739 5736 5732 5729 5726 5723 5719 5716 5713 5711 5708 5705 5703 5700 5698 5695 5693 5691 5690 5689 5688 5687 5687 5687
5787 5787 5785 5783 5781 5779 5777 5774 5771 5769 5766 5763 5759 5756 5753 5750 5747 5744 5740 5737 5733 5730 5727 5723 5720 5717 5713 5710 5708 5705 5702 5699 5696 5694 5692 5689 5688 5686 5684 5683 5683 5682 5682
5783 5782 5780 5779 5777 5775 5772 5769 5767 5764 5761 5759 5756 5753 5750 5747 5744 5741 5738 5735 5731 5728 5725 5721 5718 5714 5711 5708 5705 5702 5699 5696 5693 5691 5688 5686 5684 5682 5681 5680 5679 5678 5678
5779 5778 5776 5775 5773 5771 5768 5765 5763 5760 5758 5755 5752 5749 5746 5744 5741 5738 5735 5732 5729 5726 5722 5719 5716 5713 5709 5706 5703 5700 5697 5694 5691 5688 5686 5683 5681 5679 5678 5676 5675 5674 5674
5775 5774 5773 5771 5769 5767 5764 5762 5760 5757 5755 5752 5749 5745 5743 5741 5738 5735 5733 5730 5727 5724 5721 5718 5715 5711 5708 5704 5701 5697 5694 5691 5689 5686 5683 5681 5679 5676 5675 5673 5672 5671 5670
5771 5770 5769 5768 5766 5764 5762 5759 5756 5754 5751 5748 5746 5744 5741 5739 5736 5733 5730 5728 5725 5722 5719 5716 5712 5709 5706 5702 5699 5695 5692 5689 5686 5684 5681 5679 5676 5674 5672 5670 5669 5668 5667
5768 5767 5766 5764 5763 5761 5759 5757 5754 5751 5748 5746 5745 5742 5740 5737 5735 5732 5729 5726 5723 5720 5717 5714 5711 5708 5704 5701 5697 5693 5690 5687 5685 5682 5679 5677 5674 5672 5670 5667 5666 5665 5664
5765 5764 5763 5761 5760 5759 5757 5754 5752 5749 5747 5745 5743 5741 5738 5736 5734 5731 5728 5725 5722 5719 5716 5713 5710 5706 5703 5699 5695 5692 5689 5686 5683 5680 5677 5674 5672 5669 5667 5665 5664 5662 5661
5762 5761 5760 5759 5758 5756 5755 5753 5751 5748 5746 5744 5742 5740 5738 5736 5733 5731 5728 5725 5722 5719 5716 5712 5709 5705 5701 5698 5694 5691 5687 5684 5681 5678 5675 5672 5669 5667 5665 5663 5661 5659 5657
5759 5759 5758 5757 5756 5755 5753 5752 5750 5748 5746 5744 5742 5740 5738 5735 5733 5730 5728 5725 5722 5718 5715 5712 5708 5704 5700 5697 5693 5689 5686 5683 5680 5677 5673 5670 5667 5665 5662 5660 5658 5656 5654
5757 5757 5756 5755 5754 5753 5752 5750 5749 5747 5745 5744 5742 5740 5737 5735 5733 5730 5727 5724 5721 5718 5714 5711 5707 5703 5699 5695 5692 5688 5685 5682 5678 5675 5672 5669 5665 5662 5660 5657 5655 5653 5651